User: anonymous   Login
Location: Unspecified
(0.0000°N, 0.0000°E)
Time: 14:00:30
(UTC+00:00)
Language:

OCO 2 - Orbit

View from above orbital plane
View from above orbital plane
View from above satellite
View from above satellite

Ground track
Ground track

The orbit data is extracted from the following two-line orbital elements,

1 40059U 14035A   18288.50687859  .00000036  00000-0  18037-4 0  9998
2 40059  98.2043 227.9698 0001345  82.3655 277.7696 14.57103174228066
Epoch (UTC): 15 October 2018 12:09:54
Eccentricity: 0.0001345
inclination: 98.2043°
perigee height: 701 km
apogee height: 703 km
right ascension of ascending node: 227.9698°
argument of perigee: 82.3655°
revolutions per day: 14.57103174
mean anomaly at epoch: 277.7696°
orbit number at epoch: 22806

The dashed part of the orbit path shows where the satellite is in the earth's shadow,  

DLR